7 * 24
多渠道服务支持
OPS 9794 (NAVSTAR 8)是美国于1983年7月14日发射的NAVSTAR系列导航卫星,作为美国GPS全球定位系统早期组网卫星,NAVSTAR是GPS系统的官方命名,该卫星依靠星载原子钟发送精准测距授时信号,为全球定位、导航服务提供空间基础设施支撑,是GPS系统发展初期验证全球定位技术的重要节点,推动了卫星导航技术从试验走向实用的进程,支撑了早期GPS全球覆盖能力的构建。
美国
(US)
| 数据来源 | 国际轨道数据 |
| 星历时间: | 2026-08-05T03:56:02+0800 轨道信息已过期20天 |
| 半长轴: | 27371.049km |
| 偏心率: | 0.0223785 |
| 轨道倾角: | 63.469° |
| 近地点辐角 | 56.925° |
| 升交点赤经 | 67.486° |
| 平近点角 | 170.079° |
| 近地点: | 20380.388km |
| 远地点: | 21605.436km |
| 周期: | 751.098分钟 |
| 每日圈数: | 1.917192 |